FENGYUN 1C DEB, 31088

Orbit data source: Space-Track

FENGYUN 1C DEB, 31088 is space debris in SSO originally from a launch on Mon, 10 May 1999 UTC launched from the Taiyaun Space Center, China (TSC). Fengyun 1C debris stems from the Chinese weather satellite Fengyun-1C, which was intentionally destroyed by a Chinese anti-satellite missile in 2007. This event dramatically increased the amount of space debris, with thousands of trackable fragments posing hazards to satellites and human spaceflight. The Fengyun 1C debris cloud has become a focal point in discussions about space sustainability and the need for international regulations to prevent the creation of new debris.

Loading next visibility...
Identifier
31088, 1999-025BGJ
Orbit
SSO
Country
Flag of CNCN / PRC
Related business
Manufacturer
Unknown
Mission
Spacecraft
Bus & Motor
Unknown
Mass
Unknown
Launch date (UTC)
1999-05-10 (26 years ago)
Launch vehicle
Unknown
Launch site
Taiyaun Space Center, China (TSC)
Object type
Payload
Rocket body
Debris
Shape & HBR
Unknown shape, 0.1 m
Radar Cross Section
Small (<0.1 m²)

Expand to show TLE details & history
Last TLE update: 2 days ago

TLE from 2 days ago
0 FENGYUN 1C DEB
1 31088U 99025BGJ 25307.14029943  .00004200  00000-0  16965-2 0  9999
2 31088  99.4158   4.2420 0031047 171.7750 215.4586 14.28207468959841
Epoch: 2025-11-03T03:22Z
TLE epoch observation values (Epoch: 2025-11-03T03:22:01.870Z)
Latitude
26.67235°
Longitude
-93.66493°
Altitude
819.134 km
Speed
7.437 km/s
True Right ascension
23h 57m 57s
True Declination
26° 32' 09"
Sunlit
Object was in full shadow at epoch
Visualization orbit readout
Latitude
Unknown
Longitude
Unknown
Altitude
Unknown
Speed
Unknown
Apparent Right ascension
Unknown
Apparent Declination
Unknown
Sunlit
N/A
Visualization observer readout
Local Sidereal Time
07:19:42
Azimuth
Unknown
Elevation
Unknown
Doppler factor
Unknown
Orbital elements
Apogee altitude
817.182 km
Perigee altitude
772.642 km
Semi-major axis
7,173.049 km
Eccentricity
0.0031
Inclination
99.4158°
RAAN
4.242°
Arg. of periapsis
171.775°
True anomaly
215.25286°
Mean anomaly
215.4586°
Eccentric anomaly
215.35567°
Mean motion
3.57263 °/min
Orbital period
100.77 mins
BSTAR
0.0016965
Loading maneuver chart data...
Computing Atmospheric mass density...

Documentation

Showing up to 5 results
|